Wind_Speed
18 16 14 17 15 17 15 21 24 19 12 16 21 10 15 24 30 27 31 32 25 25 20 19 19 17 17 20 26 26 28 29 33 38 39 41 43 46 48 50 53 54 55 56
14 17 20 21 20 17 19 22 22 20 15 20 22 15 14 26 30 33 33 30 26 24 24 23 21 22 23 21 24 27 26 27 31 34 40 47 47 47 49 51 53 55 56 56
15 20 20 20 21 21 22 23 22 19 19 22 26 20 22 25 27 33 35 30 27 26 25 29 31 28 28 29 30 31 33 33 33 38 44 45 46 49 50 54 55 56 57 58
17 21 20 21 20 22 19 23 27 21 20 25 24 22 23 24 26 31 34 36 29 27 30 33 37 38 37 38 41 40 40 38 40 44 44 44 49 52 54 55 57 58 58 58
17 22 24 23 19 21 17 21 23 23 23 31 31 34 32 30 33 37 34 32 30 22 32 41 43 41 42 43 48 46 47 43 46 47 48 52 53 55 57 58 59 57 57 59
18 22 23 19 19 21 17 24 25 24 24 27 26 32 35 29 37 42 35 36 32 26 34 41 41 41 43 47 49 47 49 45 47 49 53 55 56 58 57 57 56 55 57 61
19 19 20 18 17 17 17 19 20 23 25 25 22 27 30 29 31 33 32 29 23 28 35 40 39 39 42 45 48 48 45 45 49 54 55 55 55 56 55 54 54 56 61 65
20 21 20 12 15 17 18 23 25 21 23 25 25 25 27 27 27 26 31 28 28 22 28 34 39 42 42 46 48 49 42 47 53 55 52 53 54 53 52 53 57 61 64 67
23 20 24 26 27 21 18 22 19 22 23 25 22 23 23 24 28 29 31 33 33 35 38 37 40 37 39 42 36 32 42 47 51 52 51 52 51 51 52 55 59 62 65 61
23 24 23 24 26 22 20 21 21 23 25 27 26 19 27 31 33 37 38 37 35 38 38 41 43 38 31 31 35 38 43 49 53 50 50 49 48 50 54 57 60 63 61 52
23 28 25 26 26 22 18 28 23 24 29 33 31 31 28 31 32 40 43 43 44 34 25 31 33 29 38 37 33 40 45 51 49 48 46 46 48 52 56 59 63 61 51 49
27 28 27 28 20 25 29 32 27 22 29 36 38 38 37 37 37 37 37 40 46 45 23 22 16 22 25 30 35 39 48 48 45 43 43 46 50 54 58 62 60 53 49 32
30 32 30 26 34 30 30 30 31 31 30 34 35 36 38 40 46 45 44 42 44 43 45 27 15 22 25 30 35 43 45 44 42 40 42 48 52 56 61 59 54 44 29 28
36 36 36 29 31 33 33 37 41 40 42 37 34 31 39 41 42 44 46 50 44 50 45 30 20 26 28 32 40 44 42 41 40 41 44 48 54 60 57 53 39 27 25 26
43 38 38 40 34 33 37 32 36 38 34 34 37 37 23 28 36 47 45 50 54 43 46 44 28 30 32 44 43 43 41 37 38 42 46 51 57 57 50 35 27 24 23 24
29 32 34 36 36 35 37 40 34 30 30 28 26 22 25 27 33 35 40 44 41 47 48 33 38 31 26 36 45 36 35 35 38 42 48 52 58 50 39 24 22 22 25 20
40 41 40 41 43 42 39 38 35 30 30 31 25 23 28 31 31 34 37 30 28 25 33 44 48 32 37 37 29 32 30 34 39 44 49 55 54 43 28 21 21 21 22 18
34 27 22 26 29 32 28 27 27 30 32 31 28 23 28 32 35 37 37 31 35 35 33 25 23 26 24 23 27 28 28 34 40 45 50 56 47 39 25 18 18 17 18 17
30 29 28 29 27 29 26 25 26 29 33 30 27 26 27 31 36 37 36 33 36 23 25 22 18 18 18 23 25 26 27 34 40 46 50 52 45 33 21 16 16 14 14 16
32 33 36 33 32 31 27 25 26 27 29 28 28 27 29 33 34 35 36 31 33 31 30 24 19 20 17 22 22 24 28 33 38 45 50 46 37 24 17 13 12 11 14 17
35 36 37 35 35 34 33 29 28 29 27 28 28 29 32 34 35 34 32 33 34 21 14 16 17 17 18 19 20 24 30 33 37 42 47 41 32 21 16 12 11 13 17 20
36 38 40 39 38 39 36 35 33 30 29 29 28 31 32 33 34 31 27 29 18 24 16 16 14 15 18 18 20 24 28 31 35 40 43 36 27 18 16 14 14 15 19 18
40 40 39 39 38 39 36 32 29 31 32 31 31 30 31 31 32 26 30 26 26 22 15 16 14 16 16 17 19 23 26 28 33 38 38 32 23 19 15 15 15 15 13 13
41 39 38 37 39 39 38 39 41 38 38 32 33 30 30 28 28 26 29 22 19 25 16 15 15 16 16 16 18 22 25 27 30 36 35 28 20 17 14 14 14 12 14 15
37 37 37 39 38 39 39 37 32 32 34 36 35 33 29 28 26 24 23 17 23 19 22 20 17 14 13 14 16 20 23 25 29 33 32 26 17 13 11 13 14 14 16 17
37 37 37 38 35 35 36 35 36 38 37 36 33 30 28 26 26 25 23 20 24 25 27 20 12 11 10 12 15 19 21 23 27 31 29 26 17 13 12 12 14 14 15 15
Wind_Direction
235 231 231 232 226 221 221 239 245 221 188 249 265 276 280 281 287 300 302 305 307 309 309 297 293 292 287 293 306 310 314 311 307 306 304 304 306 306 306 307 308 308 307 306
241 227 225 227 225 223 235 239 244 232 212 242 257 262 285 272 301 304 309 310 308 306 304 311 308 302 299 306 310 309 306 311 308 312 304 302 306 307 305 306 307 305 303 304
227 240 238 234 234 225 233 245 245 245 217 241 250 250 253 282 294 297 300 300 300 308 315 316 314 311 317 320 316 318 328 324 314 307 300 304 305 305 304 306 307 308 309 309
231 237 238 240 240 244 230 244 251 254 232 229 257 259 253 266 286 290 289 294 293 305 310 305 301 303 305 317 319 324 327 320 312 307 307 306 307 308 309 309 310 311 311 310
222 239 239 243 244 244 234 237 241 245 237 233 243 262 255 264 277 279 280 282 284 297 287 278 282 295 301 307 315 318 319 313 310 309 310 309 312 314 312 312 312 310 310 308
236 243 254 254 256 255 251 248 252 257 258 250 252 261 269 274 270 272 279 273 267 263 268 271 285 286 298 306 312 316 317 313 309 307 307 312 314 311 309 309 308 309 309 308
234 240 247 250 257 253 253 253 259 260 266 271 262 256 265 267 264 279 281 274 264 260 268 273 286 293 301 308 312 312 310 305 305 308 311 309 308 307 309 309 310 310 309 309
242 238 245 235 243 245 257 262 262 270 267 265 265 262 259 267 274 271 272 274 272 276 271 281 289 293 298 303 304 303 295 300 305 309 307 308 308 309 311 311 311 310 311 310
245 242 246 241 239 234 241 257 264 264 267 267 266 266 265 261 271 266 267 275 277 274 261 270 278 276 288 290 284 287 293 303 311 309 309 311 311 312 312 311 310 310 311 313
239 233 228 236 241 249 244 249 261 271 271 269 271 262 243 246 260 266 269 272 276 274 283 284 271 260 282 279 280 288 299 311 310 310 311 312 313 313 312 311 310 311 313 312
226 241 217 215 240 246 253 257 246 254 267 272 272 265 256 251 259 267 270 275 277 284 284 272 270 262 271 283 292 304 307 311 310 311 312 312 313 313 312 312 313 314 313 314
238 238 223 211 214 232 235 252 263 252 265 261 264 274 277 274 270 266 270 278 277 279 275 285 301 289 287 296 305 306 308 310 309 311 313 314 315 315 314 314 315 314 315 315
242 243 240 207 217 226 246 253 257 263 265 266 261 279 279 277 281 278 277 272 275 269 276 273 283 278 294 302 307 315 314 311 312 314 315 317 317 317 317 317 316 316 317 321
237 242 240 234 215 230 241 257 265 268 266 268 272 277 267 273 277 282 281 281 281 287 285 245 265 273 275 299 306 315 312 314 314 316 317 320 320 319 319 319 318 319 322 323
237 237 243 251 230 245 259 250 261 266 274 274 276 279 282 276 274 268 278 278 274 281 288 289 270 282 285 295 300 310 311 312 315 318 320 322 322 322 321 322 324 327 323 323
237 245 246 251 258 263 255 262 268 268 270 269 272 286 294 296 286 280 277 277 279 281 286 281 285 282 289 297 305 307 309 313 316 321 323 326 325 324 323 321 328 332 333 335
247 245 244 250 256 259 261 264 267 265 264 269 283 296 301 301 307 303 295 295 283 284 263 268 276 285 290 295 301 305 311 313 321 323 327 328 327 330 324 319 327 333 337 340
251 250 239 233 236 241 244 251 256 254 257 267 278 294 301 307 308 303 303 297 290 268 253 262 270 289 294 298 306 306 311 321 323 326 330 330 329 331 326 322 326 333 335 334
253 248 249 248 242 245 248 258 256 260 265 274 280 292 299 306 311 310 302 300 295 272 286 284 286 290 292 302 305 306 321 321 325 328 333 332 335 332 321 326 329 336 334 338
247 243 246 247 249 250 253 256 267 271 269 273 278 284 292 300 308 311 306 299 290 284 265 276 278 275 287 299 306 316 318 322 328 332 334 335 338 334 338 325 323 320 333 336
247 250 255 257 259 259 261 263 265 267 263 261 269 277 286 297 304 310 309 307 310 255 254 268 273 281 293 303 313 313 318 324 332 336 336 338 343 350 0 354 330 318 323 328
246 248 251 255 259 262 266 263 263 266 265 264 270 278 285 296 300 309 303 297 261 282 268 260 271 281 298 306 309 315 316 327 335 338 340 341 345 351 353 342 334 328 328 336
246 247 250 253 258 258 258 252 262 269 269 268 267 272 280 291 300 308 296 292 287 271 285 274 281 287 296 304 310 309 320 328 337 340 343 343 348 346 352 348 347 344 350 359
247 251 255 256 256 256 256 258 269 270 277 272 269 269 277 288 298 303 298 300 245 263 259 306 289 288 293 300 303 312 321 326 339 343 344 344 349 342 354 354 355 349 351 353
241 250 255 258 259 262 263 266 264 264 261 269 268 270 276 286 294 295 293 271 278 250 283 279 270 276 285 296 307 317 317 326 340 345 344 344 345 347 351 351 343 348 348 349
238 237 245 252 254 256 258 263 261 276 265 265 258 266 277 288 297 294 294 279 269 256 275 257 255 270 285 302 315 314 314 329 340 345 344 343 335 346 350 346 343 341 343 343
Height
5882 5885 5887 5887 5889 5890 5891 5892 5893 5893 5895 5893 5894 5896 5900 5898 5895 5895 5893 5891 5891 5891 5889 5888 5888 5886 5883 5882 5879 5878 5874 5869 5865 5861 5856 5849 5844 5839 5833 5827 5821 5816 5809 5803
5880 5880 5881 5882 5883 5885 5886 5887 5889 5889 5889 5888 5889 5890 5894 5894 5893 5889 5888 5887 5887 5886 5884 5883 5882 5880 5879 5879 5877 5874 5870 5865 5859 5854 5847 5842 5837 5834 5828 5821 5815 5808 5801 5793
5875 5875 5877 5878 5880 5880 5881 5883 5883 5884 5885 5885 5885 5886 5888 5889 5889 5886 5883 5882 5881 5879 5878 5876 5874 5872 5871 5871 5871 5868 5865 5860 5853 5848 5841 5837 5831 5825 5820 5813 5805 5796 5788 5780
5870 5869 5872 5873 5876 5877 5879 5879 5878 5880 5883 5882 5880 5882 5883 5884 5883 5881 5880 5877 5876 5875 5873 5871 5867 5865 5864 5863 5862 5859 5855 5851 5845 5839 5834 5829 5823 5816 5809 5802 5793 5785 5776 5768
5867 5865 5866 5869 5872 5871 5875 5873 5874 5875 5877 5878 5880 5877 5878 5880 5880 5877 5876 5872 5871 5870 5868 5863 5862 5861 5859 5857 5855 5852 5848 5842 5837 5830 5825 5819 5811 5804 5797 5789 5782 5775 5766 5757
5861 5860 5862 5865 5867 5866 5869 5868 5869 5870 5872 5873 5877 5874 5873 5876 5869 5865 5867 5867 5866 5865 5861 5859 5857 5857 5856 5853 5849 5845 5840 5834 5828 5823 5816 5808 5801 5795 5788 5781 5773 5765 5757 5747
5855 5856 5857 5860 5860 5861 5861 5863 5864 5866 5866 5867 5869 5867 5867 5865 5860 5858 5858 5859 5859 5859 5857 5855 5854 5854 5850 5847 5844 5840 5835 5829 5822 5815 5809 5802 5795 5788 5779 5771 5763 5755 5746 5735
5848 5850 5852 5853 5853 5856 5856 5857 5858 5860 5861 5861 5859 5860 5861 5858 5851 5851 5850 5851 5851 5853 5852 5849 5849 5848 5846 5843 5840 5835 5829 5823 5816 5810 5802 5794 5787 5779 5770 5762 5754 5744 5733 5723
5842 5845 5845 5846 5846 5850 5852 5851 5854 5853 5853 5854 5855 5854 5855 5854 5844 5846 5847 5847 5847 5848 5848 5847 5845 5844 5842 5839 5834 5829 5822 5817 5811 5802 5793 5785 5777 5768 5761 5752 5743 5732 5721 5709
5836 5839 5841 5842 5840 5843 5844 5847 5846 5846 5846 5846 5847 5849 5846 5844 5840 5837 5837 5838 5839 5840 5841 5840 5837 5834 5834 5831 5826 5821 5815 5808 5800 5792 5785 5776 5768 5760 5752 5742 5731 5720 5709 5699
5829 5829 5836 5837 5835 5837 5839 5837 5841 5842 5840 5838 5840 5840 5840 5839 5838 5831 5832 5832 5831 5832 5832 5829 5828 5829 5825 5822 5817 5811 5805 5798 5790 5783 5775 5768 5760 5752 5743 5731 5719 5709 5699 5689
5820 5823 5826 5831 5830 5831 5831 5831 5833 5835 5836 5833 5831 5832 5833 5833 5832 5831 5828 5826 5822 5822 5822 5820 5819 5819 5816 5812 5808 5803 5796 5789 5782 5775 5768 5760 5752 5743 5732 5719 5708 5698 5688 5681
5811 5814 5818 5825 5824 5825 5826 5827 5826 5827 5828 5828 5829 5828 5828 5827 5823 5821 5819 5817 5816 5817 5816 5811 5810 5809 5806 5804 5801 5794 5788 5782 5775 5766 5759 5751 5743 5733 5721 5708 5698 5688 5682 5676
5806 5808 5811 5817 5820 5818 5819 5820 5819 5820 5821 5823 5823 5824 5822 5819 5816 5810 5809 5806 5806 5804 5798 5795 5798 5799 5798 5796 5793 5787 5780 5773 5768 5760 5752 5742 5733 5722 5710 5699 5688 5682 5677 5672
5799 5802 5805 5808 5811 5813 5813 5816 5816 5814 5814 5815 5816 5815 5814 5813 5809 5806 5801 5798 5797 5798 5795 5791 5791 5791 5789 5787 5784 5779 5774 5767 5761 5754 5745 5734 5724 5712 5701 5691 5684 5678 5674 5669
5793 5796 5799 5801 5803 5805 5807 5807 5808 5809 5808 5806 5807 5808 5806 5804 5800 5797 5792 5788 5789 5788 5788 5784 5785 5781 5780 5779 5776 5772 5767 5761 5755 5746 5737 5726 5715 5703 5693 5686 5680 5675 5670 5666
5785 5789 5794 5796 5796 5797 5798 5799 5802 5802 5799 5799 5800 5800 5797 5795 5792 5788 5783 5782 5782 5779 5777 5777 5777 5776 5775 5771 5768 5766 5759 5755 5748 5739 5729 5718 5706 5695 5687 5682 5677 5672 5668 5664
5776 5782 5786 5787 5788 5789 5792 5793 5793 5793 5791 5792 5793 5793 5790 5786 5783 5780 5777 5775 5773 5770 5770 5771 5771 5769 5767 5765 5763 5759 5753 5749 5742 5733 5723 5710 5698 5688 5682 5678 5674 5670 5666 5663
5772 5773 5776 5776 5780 5782 5785 5786 5785 5785 5785 5785 5786 5786 5783 5780 5776 5773 5770 5767 5764 5761 5760 5761 5763 5760 5761 5760 5757 5753 5746 5744 5736 5727 5716 5704 5691 5682 5677 5674 5671 5669 5666 5662
5761 5763 5765 5768 5771 5774 5777 5778 5777 5778 5778 5778 5778 5777 5775 5772 5769 5766 5763 5759 5756 5754 5754 5756 5755 5756 5754 5754 5751 5746 5744 5738 5730 5721 5710 5698 5688 5680 5674 5671 5670 5668 5665 5661
5754 5755 5757 5760 5761 5765 5766 5770 5771 5772 5775 5771 5771 5769 5767 5765 5762 5758 5755 5750 5745 5745 5747 5748 5750 5751 5749 5748 5743 5742 5740 5733 5724 5716 5705 5694 5685 5678 5674 5671 5670 5668 5664 5661
5747 5748 5748 5750 5753 5755 5759 5761 5764 5763 5762 5763 5763 5761 5760 5758 5754 5752 5749 5745 5743 5744 5744 5744 5742 5743 5743 5742 5739 5738 5735 5728 5720 5712 5701 5692 5684 5679 5675 5672 5670 5667 5664 5660
5734 5737 5741 5743 5745 5746 5750 5751 5753 5754 5755 5755 5754 5755 5753 5751 5748 5746 5742 5741 5739 5740 5741 5740 5736 5738 5739 5737 5735 5735 5729 5723 5716 5708 5699 5691 5684 5679 5675 5673 5670 5667 5663 5660
5723 5727 5731 5734 5736 5738 5741 5745 5746 5747 5747 5746 5746 5747 5746 5744 5741 5739 5736 5733 5732 5732 5734 5733 5734 5734 5734 5733 5732 5730 5725 5720 5712 5704 5696 5690 5683 5679 5675 5673 5671 5668 5665 5661
5716 5719 5722 5724 5727 5729 5733 5736 5735 5736 5738 5738 5738 5739 5739 5737 5735 5735 5733 5731 5730 5729 5729 5730 5731 5732 5730 5729 5727 5724 5721 5716 5708 5701 5695 5689 5684 5680 5676 5674 5672 5669 5665 5662
5705 5709 5712 5714 5718 5719 5723 5726 5727 5727 5728 5729 5730 5732 5732 5731 5728 5728 5726 5724 5724 5724 5724 5725 5727 5727 5726 5724 5722 5720 5718 5713 5705 5700 5693 5687 5683 5679 5676 5673 5671 5668 5665 5661